• Join FlightAware (Why Join?)
  • Login
  • US Flag 
02:41AM EDT


 

Airport Tracker/Info


-or-


 

Live Flight TrackerFlight Track Log ✈ JBU41 ✈ 21-May-2013 ✈ KJFK - KMCO

Flight Track Log - Related Links

Times and Time Zones

All times are in EDT time to prevent confusion due to time zone crossing. See the JBU41 flight status page for this flight to view local times or setup timezone preferences in your user account.

Time Position Orientation Groundspeed Altitude Reporting Facility
EDT Latitude Longitude Course Direction KTS MPH feet Rate Location/Type
10:55AM 40.6019 -73.7997 146° Southeast 158 182 1,500  Level New York Center
10:56AM 40.5494 -73.8136 191° South 185 213 2,900 2,100 Climbing New York Center
10:57AM 40.5222 -73.7414 116° Southeast 202 232 5,800 3,000 Climbing New York Center
10:58AM 40.5086 -73.6236 99° East 280 322 9,000 2,520 Climbing New York Center
10:59AM 40.4794 -73.5350 113° Southeast 290 334 10,800 1,920 Climbing New York Center
11:00AM 40.3786 -73.4764 156° South 299 344 12,800 1,920 Climbing New York Center
11:01AM 40.1724 -73.3291 146° Southeast  Level FlightAware Approximate
11:01AM 40.2922 -73.4294 157° South 344 396 14,700  Level New York Center
11:02AM 40.1814 -73.4389 184° South 374 430 17,000 2,160 Climbing New York Center
11:03AM 40.0944 -73.5033 210° Southwest 368 423 19,000 1,860 Climbing New York Center
11:04AM 39.9864 -73.5831 209° Southwest 381 438 20,800 1,560 Climbing New York Center
11:05AM 39.8908 -73.6575 211° Southwest 407 468 22,200 1,560 Climbing New York Center
11:06AM 39.8586 -73.6806 209° Southwest 403 464 22,900 1,020 Climbing Washington Center
11:07AM 39.7619 -73.7561 211° Southwest 408 470 23,600 960 Climbing Washington Center
11:08AM 39.6711 -73.8231 210° Southwest 408 470 24,900 1,320 Climbing Washington Center
11:09AM 39.5703 -73.9008 211° Southwest 419 482 26,200 1,320 Climbing Washington Center
11:10AM 39.4650 -73.9786 210° Southwest 425 489 27,600 1,200 Climbing Washington Center
11:11AM 39.3642 -74.0694 215° Southwest 435 501 28,700 1,020 Climbing Washington Center
11:12AM 39.2717 -74.1706 220° Southwest 441 507 29,700 1,320 Climbing Washington Center
11:13AM 39.1853 -74.2767 224° Southwest 447 514 31,400 1,380 Climbing Washington Center
11:14AM 39.1261 -74.4117 241° Southwest 436 502 32,600 1,080 Climbing Washington Center
11:15AM 39.0714 -74.5517 243° Southwest 436 502 33,600 900 Climbing Washington Center
11:16AM 39.0097 -74.6781 238° Southwest 430 495 34,500 960 Climbing Washington Center
11:17AM 38.9125 -74.7647 215° Southwest 423 487 35,600 720 Climbing Washington Center
11:18AM 38.8128 -74.8431 211° Southwest 418 481 36,000 180 Climbing Washington Center
11:19AM 38.7153 -74.9239 213° Southwest 418 481 36,000  Level Washington Center
11:20AM 38.6178 -75.0097 215° Southwest 424 488 36,000  Level Washington Center
11:21AM 38.5181 -75.0850 211° Southwest 424 488 36,000  Level Washington Center
11:22AM 38.4164 -75.1650 212° Southwest 432 497 36,000  Level Washington Center
11:23AM 38.3039 -75.2531 212° Southwest 437 503 36,000  Level Washington Center
11:24AM 38.2000 -75.3247 208° Southwest 437 503 36,000  Level Washington Center
11:25AM 38.0958 -75.3939 208° Southwest 431 496 36,000  Level Washington Center
11:26AM 37.9894 -75.4706 210° Southwest 431 496 36,000  Level Washington Center
11:27AM 37.8853 -75.5392 207° Southwest 431 496 36,000 -60 Level Washington Center
11:28AM 37.7831 -75.6156 211° Southwest 431 496 35,900 -60 Descending Washington Center
11:29AM 37.6767 -75.6864 208° Southwest 436 502 35,900  Level Washington Center
11:30AM 37.5725 -75.7569 208° Southwest 436 502 36,000  Climbing Washington Center
11:31AM 37.4681 -75.8300 209° Southwest 436 502 36,000  Level Washington Center
11:32AM 37.3636 -75.9003 208° Southwest 436 502 36,000  Level Washington Center
11:33AM 37.2611 -75.9728 209° Southwest 436 502 36,000  Level Washington Center
11:34AM 37.1544 -76.0453 208° Southwest 441 507 36,000  Level Washington Center
11:35AM 37.0519 -76.1175 209° Southwest 436 502 36,000  Level Washington Center
11:36AM 36.9517 -76.1767 205° Southwest 436 502 36,000  Level Washington Center
11:37AM 36.8447 -76.2458 207° Southwest 436 502 36,000  Level Washington Center
11:38AM 36.7400 -76.3178 209° Southwest 436 502 36,000  Level Washington Center
11:39AM 36.6353 -76.3944 210° Southwest 436 502 36,000  Level Washington Center
11:40AM 36.5325 -76.4606 207° Southwest 436 502 36,000  Level Washington Center
11:41AM 36.4256 -76.5317 208° Southwest 436 502 36,000  Level Washington Center
11:42AM 36.3208 -76.6000 208° Southwest 436 502 36,000  Level Washington Center
11:43AM 36.2158 -76.6681 208° Southwest 441 507 36,000  Level Washington Center
11:44AM 36.1131 -76.7386 209° Southwest 441 507 36,000  Level Washington Center
11:45AM 36.0081 -76.8064 208° Southwest 441 507 36,000  Level Washington Center
11:46AM 35.9111 -76.8947 216° Southwest 441 507 36,000  Level Washington Center
11:47AM 35.8225 -76.9881 221° Southwest 436 502 36,000  Level Washington Center
11:48AM 35.7092 -77.0400 200° South 436 502 36,000  Level Washington Center
11:49AM 35.6000 -77.0864 199° South 423 487 36,000  Level Washington Center
11:50AM 35.4869 -77.1303 198° South 423 487 36,000  Level Washington Center
11:51AM 35.3694 -77.1739 197° South 430 495 36,000  Level Washington Center
11:52AM 35.2539 -77.2225 199° South 435 501 36,000  Level Washington Center
11:53AM 35.1386 -77.2658 197° South 440 506 36,000  Level Washington Center
11:54AM 35.0233 -77.3117 198° South 440 506 36,000  Level Washington Center
11:55AM 34.9078 -77.3547 197° South 440 506 36,000 -60 Level Washington Center
11:56AM 34.7967 -77.4031 200° South 440 506 35,900 -60 Descending Washington Center
11:57AM 34.6792 -77.4458 197° South 440 506 35,900  Level Washington Center
11:58AM 34.5636 -77.4911 198° South 440 506 36,000  Climbing Washington Center
11:59AM 34.4461 -77.5336 197° South 445 512 36,000  Level Washington Center
12:00PM 34.3306 -77.5789 198° South 445 512 36,000  Level Washington Center
12:01PM 34.2150 -77.6211 197° South 440 506 36,000  Level Washington Center
12:02PM 34.0975 -77.6633 197° South 440 506 36,000  Level Washington Center
12:05PM 33.7111 -77.8119 198° South 453 521 36,000  Level Jacksonville Center
12:06PM 33.5939 -77.8561 197° South 448 516 36,000  Level Jacksonville Center
12:07PM 33.4769 -77.9053 199° South 448 516 36,000  Level Jacksonville Center
12:08PM 33.3642 -77.9514 199° South 443 510 36,000  Level Jacksonville Center
12:09PM 33.2467 -77.9925 196° South 438 504 36,000  Level Jacksonville Center
12:10PM 33.1297 -78.0436 200° South 438 504 36,000  Level Jacksonville Center
12:11PM 33.0283 -78.1183 212° Southwest 424 488 36,000  Level Jacksonville Center
12:12PM 32.9961 -78.2639 255° West 412 474 36,000 -60 Level Jacksonville Center
12:13PM 32.9892 -78.4153 267° West 427 491 35,900 -60 Descending Jacksonville Center
12:14PM 32.9817 -78.5642 267° West 441 507 35,900  Level Jacksonville Center
12:15PM 32.9719 -78.7081 265° West 449 517 36,000  Climbing Jacksonville Center
12:16PM 32.9700 -78.8419 269° West 449 517 36,000 -180 Level Jacksonville Center
12:17PM 32.9558 -78.9886 263° West 449 517 35,700 -600 Descending Jacksonville Center
12:18PM 32.8867 -79.1103 236° Southwest 427 491 34,800 -900 Descending Jacksonville Center
12:19PM 32.8042 -79.2200 228° Southwest 439 505 34,000 -300 Descending Jacksonville Center
12:21PM 32.6372 -79.4439 229° Southwest 457 526 34,000  Level Jacksonville Center
12:22PM 32.5486 -79.5631 229° Southwest 457 526 34,000  Level Jacksonville Center
12:23PM 32.4661 -79.6794 230° Southwest 451 519 34,000  Level Jacksonville Center
12:24PM 32.3792 -79.7931 228° Southwest 456 525 34,000  Level Jacksonville Center
12:25PM 32.2942 -79.9067 229° Southwest 461 531 34,000  Level Jacksonville Center
12:26PM 32.2092 -80.0200 228° Southwest 461 531 34,000  Level Jacksonville Center
12:27PM 32.1261 -80.1303 228° Southwest 461 531 34,000 -60 Level Jacksonville Center
12:28PM 32.0408 -80.2433 228° Southwest 456 525 33,900 -60 Descending Jacksonville Center
12:29PM 31.9553 -80.3558 228° Southwest 462 532 33,900  Level Jacksonville Center
12:30PM 31.8739 -80.4683 230° Southwest 467 537 34,000  Climbing Jacksonville Center
12:31PM 31.7842 -80.5756 225° Southwest 467 537 34,000  Level Jacksonville Center
12:32PM 31.6981 -80.6633 221° Southwest 460 529 34,000  Level Jacksonville Center
12:33PM 31.6147 -80.7944 233° Southwest 455 524 34,000  Level Jacksonville Center
12:34PM 31.5456 -80.9131 236° Southwest 460 529 34,000  Level Jacksonville Center
12:35PM 31.4847 -81.0264 238° Southwest 461 531 34,000  Level Jacksonville Center
12:36PM 31.4072 -81.1594 236° Southwest 461 531 34,000  Level Jacksonville Center
12:37PM 31.3442 -81.2750 237° Southwest 461 531 34,000  Level Jacksonville Center
12:38PM 31.2703 -81.3978 235° Southwest 466 536 34,000 -60 Level Jacksonville Center
12:39PM 31.1775 -81.4939 222° Southwest 460 529 33,900  Descending Jacksonville Center
12:40PM 31.0739 -81.5731 213° Southwest 450 518 34,000  Climbing Jacksonville Center
12:41PM 30.9661 -81.6497 211° Southwest 450 518 34,000  Level Jacksonville Center
12:42PM 30.8625 -81.7261 212° Southwest 450 518 34,000  Level Jacksonville Center
12:43PM 30.7567 -81.8047 213° Southwest 450 518 34,000  Level Jacksonville Center
12:44PM 30.6531 -81.8808 212° Southwest 450 518 34,000  Level Jacksonville Center
12:45PM 30.5344 -81.9617 210° Southwest 445 512 34,000  Level Jacksonville Center
12:46PM 30.4264 -82.0397 212° Southwest 453 521 34,000  Level Jacksonville Center
12:47PM 30.3183 -82.1178 212° Southwest 458 527 34,000 -360 Level Jacksonville Center
12:48PM 30.1997 -82.1717 201° Southwest 453 521 33,300 -900 Descending Jacksonville Center
12:49PM 30.0747 -82.1917 188° South 453 521 32,300 -1,020 Descending Jacksonville Center
12:50PM 29.9492 -82.1856 178° South 453 521 31,300 -1,440 Descending Jacksonville Center
12:51PM 29.8219 -82.1647 172° South 448 516 29,500 -1,860 Descending Jacksonville Center
12:52PM 29.6986 -82.1347 168° South 453 521 27,600 -1,620 Descending Jacksonville Center
12:53PM 29.5772 -82.1044 168° South 453 521 26,300 -2,340 Descending Jacksonville Center
12:54PM 29.4558 -82.0722 167° South 448 516 23,000 -3,660 Descending Jacksonville Center
12:55PM 29.3306 -82.0422 168° South 448 516 19,000 -3,300 Descending Jacksonville Center
12:56PM 29.2092 -82.0122 168° South 448 516 16,400 -2,520 Descending Jacksonville Center
12:57PM 29.0942 -81.9847 168° South 448 516 14,000 -2,340 Descending Jacksonville Center
12:58PM 28.9875 -81.9597 168° South 423 487 11,800 -1,440 Descending Jacksonville Center
12:59PM 28.9019 -81.9392 168° South 372 428 11,200 -480 Descending Jacksonville Center
01:00PM 28.8450 -81.8733 135° Southeast 299 344 10,900 -240 Descending Jacksonville Center
01:01PM 28.8000 -81.8000 125° Southeast 270 311 10,800 -780 Descending Orlando TRACON
01:02PM 28.8000 -81.7167 90° East 247 284 9,300 -900 Descending Orlando TRACON
01:03PM 28.8000 -81.6333 90° East 245 282 9,000 -660 Descending Orlando TRACON
01:04PM 28.8000 -81.5667 90° East 217 250 8,100 -1,020 Descending Orlando TRACON
01:05PM 28.7667 -81.5167 127° Southeast 220 253 7,000 -900 Descending Orlando TRACON
01:06PM 28.7500 -81.4500 106° East 217 250 6,400 -900 Descending Orlando TRACON
01:07PM 28.7167 -81.3833 120° Southeast 214 246 5,200 -1,140 Descending Orlando TRACON
01:08PM 28.6833 -81.3500 139° Southeast 207 238 4,300 -1,140 Descending Orlando TRACON
01:09PM 28.6333 -81.3333 164° South 208 239 3,200 -900 Descending Orlando TRACON
01:10PM 28.5833 -81.3333 180° South 196 226 2,500 -780 Descending Orlando TRACON
01:11PM 28.5333 -81.3333 180° South 193 222 1,700 -900 Descending Orlando TRACON
01:12PM 28.4833 -81.3333 180° South 146 168 800 -900 Descending Orlando TRACON
01:14PM 28.4294 -81.3090 180° South  Level Estimated